Погода в Сыктывкаре

Погода в Сыктывкаре : погода сейчас, прогноз погоды и архив. Всё, что Вы хотите узнать о погоде в Сыктывкаре!

Поиск расширенной информации на нашем сайте:

Другие новости

Новости СМИ2

Главная страница сайта

Новости сайта

03.07.2017

Напоминаем, что на нашем специализированном сайте Метеоцентр.Азия вы можете получить высокодетализированные автоматические прогнозы погоды по пунктам России, СНГ и мира в авиационном формате (включающие направление и скорость ветра, видимость, явления погоды, количество и форму облачности, нижнюю и верхнюю границу облачности).


Погода в Сыктывкаре - сегодня

Время (UTC), дата Ветер
(°,м/с) 
Видим.   Явления Облачность Т
(°С)
Тd
(°С)
f(%) Тe
(°С)
Pmin
(гПа)
dP
(гПа)
Po
(мм)
O2
(г/м3)
Тmin Tmax R s Состояние
почвы
18 21.09.18 190 (Ю) 10 км    4/0 средняя, верхняя 
[Ac trans|Ci fib]
+10.1 +10.1 100 +12  1012.1  0.2  749  289           
21 21.09.18 тихо ()   10 км    6/0 средняя, верхняя 
[Ac trans|Ci fib]
+9.7 +9.3 97 +10  1012.4  0.3  749  290           
00 22.09.18 тихо ()   10 км    8/0 средняя 
[Ac trans]
+10.1 +9.8 98 +11  1012.7  0.3  749  289           
03 22.09.18 тихо ()   20000 м  дымка  9/3 600 м кучево-дожд., средняя, верхняя 
[Cb cap|Ac trans|Cc]
+8.7 +8.4 98 +9  1013.2  0.4  749  291  +8.6        влажная 
06 22.09.18 260 (З) 20000 м    8/0 верхняя 
[Cs]
+14.7 +11.7 82 +18  1013.2  0.3  750  284           
09 22.09.18 270 (З) 20000 м    8/5 600 м верхняя 
[Cu hum|Ci fib]
+18.7 +11.8 64 +24  1013.6  0.6  750  281           
12 22.09.18 230 (ЮЗ) 20000 м    8/3 600 м средняя, верхняя 
[Cu hum|Ac trans|Ci fib]
+18.8 +12.4 66 +25  1013.3  -0.3  750  280           
18 22.09.18 190 (Ю) 10 км    ясно 
+12.5 +12 97 +18  1012.2  -0.8  749  286           
21 22.09.18 220 (ЮЗ) 10 км    ясно 
+12.3 +11.8 97 +18  1011.7  -0.6  748  286           
00 23.09.18 210 (ЮЗ) 10 км    ясно 
+11.7 +11.7 100 +17  1011.2  -0.5  748  287           
03 23.09.18 210 (ЮЗ) 1000 м  дымка{туман}  10/10 100 м 
[St]
+12.2 +11.8 97 +17  1010.5  -0.7  747  286  +11.3        сухая 
06 23.09.18 180 (Ю) 20000 м  {туман}  5/0 верхняя 
[Ci fib]
+16.5 +14.3 87 +25  1009.4  -0.9  747  281           
09 23.09.18 190 (Ю) 20000 м    10/0 верхняя 
[Cs]
+22.1 +14.2 61 +30  1007.7  -1.4  746  275           
12 23.09.18 180 (Ю) 20000 м    5/0 верхняя 
[Ci fib]
+22.9 +13.3 55 +29  1006.4  -1.2  745  274           
18 23.09.18 190 (Ю) 10 км    4/0 верхняя 
[Ci fib]
+17.5 +12.1 71 +22  1004.1  -1.1  743  279           
21 23.09.18 190 (Ю) 10 км    5/0 верхняя 
[Ci fib]
+15.4 +12 80 +20  1003.5  -0.7  742  281           
00 24.09.18 200 (Ю) 10 км    8/0 верхняя 
[Cs]
+14.1 +11.7 85 +19  1003.9  0.3  743  282           
03 24.09.18 200 (Ю) 20000 м    9/0 средняя, верхняя 
[Ac trans|Ci fib]
+12.2 +11.6 96 +17  1004.5  0.5  743  284  +12        сухая 
06 24.09.18 230 (ЮЗ) 20000 м    10/9 500 м средняя 
[Cu Sc|Ac und]
+14.3 +12.4 88 +20  1004.6  0.2  743  282           
09 24.09.18 330 (СЗ) 10 км  слаб. ливневой дождь  10/9 300 м кучево-дожд., средняя 
[Cb cap|Ac As]
+10.1 +9.9 99 +12  1005  0.2  743  287           
18 24.09.18 180 (Ю) 10 км  {ливн. осадки}  10/0 средняя, верхняя 
[Ac und|Ci fib]
+7.2 +6.9 98 +8  1009.9  0.9  747  292           
21 24.09.18 180 (Ю) 1000 м  дымка{туман}  10/0 верхняя 
[Cs]
+5.9 +5.5 97 +7  1009.9  -0.1  747  294           
00 25.09.18 200 (Ю) 2000 м  дымка{туман}  10/0 средняя 
[As op]
+5.8 +5.4 97 +7  1010.1  0.2  747  294           
03 25.09.18 140 (ЮВ) 0500 м  туман  ?/?  
+5.8 +5.5 98 +7  1009.3  -0.8  746  294  +5.5        влажная 
09 25.09.18 140 (ЮВ) 20000 м    10/3 600 м кучево-дожд., средняя 
[Cb cap|As trans]
+10.1 +6.8 80 +10  1006.7  -1.5  745  288           
Время (UTC), дата Ветер
(°,м/с) 
Видим.   Явления Облачность Т
(°С)
Тd
(°С)
f(%) Тe
(°С)
Pmin
(гПа)
dP
(гПа)
Po
(мм)
O2
(г/м3)
Тmin Tmax R s Состояние
почвы

Для получения пояснительной информации подведите курсор к названию столбца.

ПОГОДА в Сыктывкаре - архив

Всё, что Вы хотите узнать о погоде в Сыктывкаре - удобно и подробно!

Выберите нужную дату (начиная с 1 января 2015* года) и нажмите кнопку "Найти".
Будут отображены архивные сводки погоды по пункту Сыктывкар, начиная с указанной даты.


Отображать данные в формате CSV (для использования в таблицах Excel)


Внимание! Наш архив погоды предназначен исключительно для личного некоммерческого использования в познавательных целях. Если Вам необходимы официальные справки о состоянии погоды (для производственных, юридических, коммерческих и т.п. целей), обращайтесь в органы Росгидромета.

*Примечание: данная дата относится к архиву по метеостанциям СССР (Россия, СНГ, Балтия).
Архив по метеостанциям Зарубежной Европы и Азии (кроме Китая) хранится 10 дней, по другим регионам земного шара (Китай, Африка, Америка, Австралия, Океания) - 1 день.

Сыктывкар - район местоположения метеостанции


Название, широта, долгота, высота метеостанции:
Сыктывкар (город) 61.7°ш. 50.8°д. 104 м над ур. моря [Российская Федерация]

Дополнительная информация

В oтличие oт бoльшинства пoгoдных сайтoв мы публикуем пoдрoбную метеoинфoрмацию в детальнoм прoфессиoнальнoм фoрмате.

Характеристики температуры и влажнoсти вoздуха измеряются на высoте 2 м в тени вдали oт зданий и деревьев.
Скoрoсть ветра измеряется на высoте 10 м (на урoвне рoста челoвека скoрoсть ветра ниже в 1.5-2 раза). Если метеoстанция нахoдится в гoрoде или в лесу, тo скoрoсть ветра занижена на 2-4 м/с пo сравнению с oткрытым местoм. Скoрoсть ветра над акватoриями крупных рек и oзёр, а также на вершинах хoлмoв на 2-5 м/с выше, чем в oбычных услoвиях.
Атмoсфернoе давление в разных тoчках местнoсти мoжет значительнo oтличаться oт давления на метеoстанции, в зависимoсти oт услoвий рельефа (при пoдъёме на 10 м давление пoнижается примернo на 1 мм рт.ст.).